Time,TemperatureF,DewpointF,PressureIn,WindDirection,WindDirectionDegrees,WindSpeedMPH,WindSpeedGustMPH,Humidity,HourlyPrecipIn,Conditions,Clouds,dailyrainin,SolarRadiationWatts/m^2,SoftwareType,DateUTC
2013-05-05 00:00:00,65.2,57.1,29.91,South,180,3.0,11.0,75,0.00,,,0.00,0.00,VWS V14.00,2013-05-05 05:00:00,
2013-05-05 00:15:00,65.2,57.1,29.91,South,180,3.0,10.0,75,0.00,,,0.00,0.00,VWS V14.00,2013-05-05 05:15:00,
2013-05-05 00:30:00,65.1,57.4,29.91,South,180,3.0,10.0,76,0.00,,,0.00,0.00,VWS V14.00,2013-05-05 05:30:00,
2013-05-05 00:45:00,65.0,57.3,29.91,South,180,3.0,11.0,76,0.00,,,0.00,0.00,VWS V14.00,2013-05-05 05:45:00,
2013-05-05 01:00:00,64.9,57.5,29.91,South,180,2.0,6.0,77,0.00,,,0.00,0.00,VWS V14.00,2013-05-05 06:00:00,
2013-05-05 01:15:00,64.7,57.7,29.91,South,180,3.0,10.0,78,0.00,,,0.00,0.00,VWS V14.00,2013-05-05 06:15:00,
2013-05-05 01:30:00,64.9,58.2,29.91,SSW,202,3.0,11.0,79,0.00,,,0.00,0.00,VWS V14.00,2013-05-05 06:30:00,
2013-05-05 01:45:00,64.9,58.6,29.91,SSW,202,4.0,10.0,80,0.00,,,0.00,0.00,VWS V14.00,2013-05-05 06:45:00,
2013-05-05 02:00:00,64.2,58.6,29.91,SSW,202,3.0,9.0,82,0.00,,,0.00,0.00,VWS V14.00,2013-05-05 07:00:00,
2013-05-05 02:15:00,63.4,58.2,29.91,SSW,202,1.0,5.0,83,0.00,,,0.00,0.00,VWS V14.00,2013-05-05 07:15:00,
2013-05-05 02:30:00,62.8,57.9,29.90,SSW,202,0.0,3.0,84,0.00,,,0.00,0.00,VWS V14.00,2013-05-05 07:30:00,
2013-05-05 02:45:00,62.0,57.5,29.90,SSW,202,0.0,2.0,85,0.00,,,0.00,0.00,VWS V14.00,2013-05-05 07:45:00,
2013-05-05 03:00:00,61.5,57.3,29.90,SSW,202,0.0,2.0,86,0.00,,,0.00,0.00,VWS V14.00,2013-05-05 08:00:00,
2013-05-05 03:15:00,61.1,57.2,29.90,SSW,202,0.0,1.0,87,0.00,,,0.00,0.00,VWS V14.00,2013-05-05 08:15:00,
2013-05-05 03:34:00,60.8,56.9,29.89,SSW,202,0.0,2.0,87,0.00,,,0.00,0.00,VWS V14.00,2013-05-05 08:34:00,
2013-05-05 03:45:00,60.5,56.9,29.90,SSW,204,0.0,1.0,88,0.00,,,0.00,0.00,VWS V14.00,2013-05-05 08:45:00,
2013-05-05 04:00:00,60.4,56.8,29.90,SSW,204,0.0,2.0,88,0.00,,,0.00,0.00,VWS V14.00,2013-05-05 09:00:00,
2013-05-05 04:15:00,60.2,56.6,29.91,SSW,202,0.0,2.0,88,0.00,,,0.00,0.00,VWS V14.00,2013-05-05 09:15:00,
2013-05-05 04:30:00,59.9,56.3,29.91,NW,315,0.0,4.0,88,0.00,,,0.00,0.00,VWS V14.00,2013-05-05 09:30:00,
2013-05-05 04:45:00,58.4,54.5,29.92,North,0,1.0,9.0,87,0.00,,,0.00,0.00,VWS V14.00,2013-05-05 09:45:00,
2013-05-05 05:00:00,56.3,52.8,29.93,North,0,2.0,5.0,88,0.00,,,0.00,0.00,VWS V14.00,2013-05-05 10:00:00,
2013-05-05 05:15:00,55.5,52.3,29.94,North,0,1.0,5.0,89,0.00,,,0.00,0.00,VWS V14.00,2013-05-05 10:15:00,
2013-05-05 05:30:00,56.0,53.1,29.94,NW,315,0.0,4.0,90,0.00,,,0.00,0.00,VWS V14.00,2013-05-05 10:30:00,
2013-05-05 05:45:00,56.0,53.1,29.95,NW,315,0.0,1.0,90,0.00,,,0.00,0.00,VWS V14.00,2013-05-05 10:45:00,
2013-05-05 06:00:00,56.1,53.2,29.95,NW,315,0.0,2.0,90,0.00,,,0.00,0.00,VWS V14.00,2013-05-05 11:00:00,
2013-05-05 06:15:00,56.0,53.1,29.96,NW,315,0.0,3.0,90,0.00,,,0.00,0.00,VWS V14.00,2013-05-05 11:15:00,
2013-05-05 06:30:00,56.1,53.2,29.96,NNW,338,1.0,2.0,90,0.00,,,0.00,0.00,VWS V14.00,2013-05-05 11:30:00,
2013-05-05 06:45:00,56.2,53.3,29.97,NNW,338,0.0,3.0,90,0.00,,,0.00,1.00,VWS V14.00,2013-05-05 11:45:00,
2013-05-05 07:00:00,56.3,53.1,29.97,NNW,338,0.0,4.0,89,0.00,,,0.00,12.00,VWS V14.00,2013-05-05 12:00:00,
2013-05-05 07:15:00,56.4,53.2,29.99,NW,315,0.0,3.0,89,0.00,,,0.00,25.00,VWS V14.00,2013-05-05 12:15:00,
2013-05-05 07:30:00,57.7,54.2,30.00,NW,315,1.0,5.0,88,0.00,,,0.00,77.00,VWS V14.00,2013-05-05 12:30:00,
2013-05-05 07:45:00,59.2,55.0,30.00,NNW,338,1.0,7.0,86,0.00,,,0.00,139.00,VWS V14.00,2013-05-05 12:45:00,
2013-05-05 08:00:00,61.1,55.6,30.01,NNW,338,1.0,6.0,82,0.00,,,0.00,214.00,VWS V14.00,2013-05-05 13:00:00,
2013-05-05 08:15:00,62.6,56.0,30.02,NW,315,1.0,7.0,79,0.00,,,0.00,275.00,VWS V14.00,2013-05-05 13:15:00,
2013-05-05 08:30:00,63.7,54.9,30.01,NNW,338,2.0,11.0,73,0.00,,,0.00,336.00,VWS V14.00,2013-05-05 13:30:00,
2013-05-05 08:45:00,64.7,53.5,30.02,NNW,338,3.0,11.0,67,0.00,,,0.00,392.00,VWS V14.00,2013-05-05 13:45:00,
2013-05-05 09:15:00,65.6,51.4,30.03,North,0,4.0,10.0,60,0.00,,,0.00,506.00,VWS V14.00,2013-05-05 14:15:00,
2013-05-05 09:30:00,66.5,51.3,30.03,North,0,4.0,12.0,58,0.00,,,0.00,557.00,VWS V14.00,2013-05-05 14:30:00,
2013-05-05 09:45:00,67.0,49.3,30.03,North,0,4.0,10.0,53,0.00,,,0.00,612.00,VWS V14.00,2013-05-05 14:45:00,
2013-05-05 10:00:00,67.6,49.4,30.04,North,0,4.0,11.0,52,0.00,,,0.00,661.00,VWS V14.00,2013-05-05 15:00:00,
2013-05-05 10:15:00,68.1,49.3,30.04,North,0,4.0,11.0,51,0.00,,,0.00,709.00,VWS V14.00,2013-05-05 15:15:00,
2013-05-05 10:30:00,69.6,47.9,30.04,North,0,3.0,12.0,46,0.00,,,0.00,753.00,VWS V14.00,2013-05-05 15:30:00,
2013-05-05 10:45:00,69.8,48.7,30.04,North,0,4.0,11.0,47,0.00,,,0.00,796.00,VWS V14.00,2013-05-05 15:45:00,
2013-05-05 11:00:00,70.8,48.4,30.04,North,0,4.0,11.0,45,0.00,,,0.00,835.00,VWS V14.00,2013-05-05 16:00:00,
2013-05-05 11:15:00,72.2,49.7,30.04,NNE,22,3.0,10.0,45,0.00,,,0.00,871.00,VWS V14.00,2013-05-05 16:15:00,
2013-05-05 11:30:00,72.0,48.9,30.04,NNW,338,3.0,11.0,44,0.00,,,0.00,903.00,VWS V14.00,2013-05-05 16:30:00,
2013-05-05 11:45:00,71.2,48.8,30.04,North,0,5.0,12.0,45,0.00,,,0.00,931.00,VWS V14.00,2013-05-05 16:45:00,
2013-05-05 12:00:00,72.7,51.9,30.04,North,0,3.0,10.0,48,0.00,,,0.00,955.00,VWS V14.00,2013-05-05 17:00:00,
2013-05-05 12:15:00,73.1,49.9,30.04,North,0,3.0,10.0,44,0.00,,,0.00,977.00,VWS V14.00,2013-05-05 17:15:00,
2013-05-05 12:30:00,73.9,51.2,30.05,NW,315,2.0,10.0,45,0.00,,,0.00,997.00,VWS V14.00,2013-05-05 17:30:00,
2013-05-05 12:45:00,74.5,51.2,30.04,NNW,338,2.0,11.0,44,0.00,,,0.00,1008.00,VWS V14.00,2013-05-05 17:45:00,
2013-05-05 13:00:00,74.9,50.9,30.03,NW,315,2.0,10.0,43,0.00,,,0.00,1016.00,VWS V14.00,2013-05-05 18:00:00,
2013-05-05 13:15:00,76.0,52.5,30.03,North,0,2.0,8.0,44,0.00,,,0.00,1020.00,VWS V14.00,2013-05-05 18:15:00,
2013-05-05 13:30:00,76.1,50.0,30.02,NNW,338,3.0,11.0,40,0.00,,,0.00,1020.00,VWS V14.00,2013-05-05 18:30:00,
2013-05-05 14:00:00,77.7,50.8,30.00,North,0,3.0,8.0,39,0.00,,,0.00,1004.00,VWS V14.00,2013-05-05 19:00:00,
2013-05-05 14:15:00,78.6,49.4,30.00,NW,315,2.0,11.0,36,0.00,,,0.00,993.00,VWS V14.00,2013-05-05 19:15:00,
2013-05-05 14:30:00,78.9,48.2,29.99,NNW,338,3.0,9.0,34,0.00,,,0.00,974.00,VWS V14.00,2013-05-05 19:30:00,
2013-05-05 14:45:00,80.1,50.0,29.99,North,0,2.0,9.0,35,0.00,,,0.00,954.00,VWS V14.00,2013-05-05 19:45:00,
2013-05-05 15:00:00,80.8,49.8,29.98,NW,315,2.0,10.0,34,0.00,,,0.00,931.00,VWS V14.00,2013-05-05 20:00:00,
2013-05-05 15:15:00,81.7,48.2,29.97,NW,315,2.0,10.0,31,0.00,,,0.00,904.00,VWS V14.00,2013-05-05 20:15:00,
2013-05-05 15:30:00,81.7,48.2,29.97,NNW,338,2.0,7.0,31,0.00,,,0.00,873.00,VWS V14.00,2013-05-05 20:30:00,
2013-05-05 15:45:00,81.9,49.2,29.97,NW,315,2.0,9.0,32,0.00,,,0.00,837.00,VWS V14.00,2013-05-05 20:45:00,
2013-05-05 16:00:00,81.5,50.5,29.96,WNW,292,2.0,11.0,34,0.00,,,0.00,797.00,VWS V14.00,2013-05-05 21:00:00,
2013-05-05 16:15:00,81.9,48.3,29.95,West,270,2.0,7.0,31,0.00,,,0.00,756.00,VWS V14.00,2013-05-05 21:15:00,
2013-05-05 16:30:00,81.9,49.2,29.95,NW,315,2.0,10.0,32,0.00,,,0.00,709.00,VWS V14.00,2013-05-05 21:30:00,
2013-05-05 16:45:00,81.7,52.9,29.95,West,270,1.0,7.0,37,0.00,,,0.00,660.00,VWS V14.00,2013-05-05 21:45:00,
2013-05-05 17:00:00,81.6,53.6,29.94,NNW,338,2.0,10.0,38,0.00,,,0.00,610.00,VWS V14.00,2013-05-05 22:00:00,
2013-05-05 17:15:00,81.1,53.8,29.94,North,0,2.0,9.0,39,0.00,,,0.00,556.00,VWS V14.00,2013-05-05 22:15:00,
2013-05-05 17:30:00,80.5,53.3,29.94,North,0,2.0,7.0,39,0.00,,,0.00,504.00,VWS V14.00,2013-05-05 22:30:00,
2013-05-05 17:45:00,80.3,53.1,29.94,NNW,338,1.0,7.0,39,0.00,,,0.00,451.00,VWS V14.00,2013-05-05 22:45:00,
2013-05-05 18:00:00,79.8,52.7,29.94,WNW,292,2.0,9.0,39,0.00,,,0.00,397.00,VWS V14.00,2013-05-05 23:00:00,
2013-05-05 18:15:00,79.5,53.1,29.94,NNW,338,2.0,6.0,40,0.00,,,0.00,340.00,VWS V14.00,2013-05-05 23:15:00,
2013-05-05 18:30:00,78.6,53.0,29.94,North,0,2.0,10.0,41,0.00,,,0.00,285.00,VWS V14.00,2013-05-05 23:30:00,
2013-05-05 18:45:00,78.0,53.1,29.95,North,0,2.0,10.0,42,0.00,,,0.00,228.00,VWS V14.00,2013-05-05 23:45:00,
2013-05-05 19:00:00,77.0,53.4,29.95,NW,315,1.0,7.0,44,0.00,,,0.00,80.00,VWS V14.00,2013-05-06 00:00:00,
2013-05-05 19:15:00,75.4,52.6,29.95,NNW,338,2.0,6.0,45,0.00,,,0.00,37.00,VWS V14.00,2013-05-06 00:15:00,
2013-05-05 19:30:00,74.4,52.3,29.96,NNE,22,2.0,10.0,46,0.00,,,0.00,29.00,VWS V14.00,2013-05-06 00:30:00,
2013-05-05 19:45:00,73.3,51.9,29.96,North,0,2.0,6.0,47,0.00,,,0.00,20.00,VWS V14.00,2013-05-06 00:45:00,
2013-05-05 20:06:00,72.2,51.4,29.96,North,0,1.0,6.0,48,0.00,,,0.00,11.00,VWS V14.00,2013-05-06 01:06:00,
2013-05-05 20:15:00,70.9,51.3,29.97,NNE,31,2.0,4.0,50,0.00,,,0.00,0.00,VWS V14.00,2013-05-06 01:15:00,
2013-05-05 20:30:00,70.0,50.5,29.97,NNE,22,1.0,4.0,50,0.00,,,0.00,0.00,VWS V14.00,2013-05-06 01:30:00,
2013-05-05 20:45:00,69.7,50.8,29.98,NNE,22,1.0,5.0,51,0.00,,,0.00,0.00,VWS V14.00,2013-05-06 01:45:00,
2013-05-05 21:00:00,69.4,50.0,29.98,North,0,2.0,5.0,50,0.00,,,0.00,0.00,VWS V14.00,2013-05-06 02:00:00,
2013-05-05 21:15:00,69.3,50.9,29.98,NNE,22,1.0,5.0,52,0.00,,,0.00,0.00,VWS V14.00,2013-05-06 02:15:00,
2013-05-05 21:30:00,69.4,50.0,29.99,NNE,22,2.0,6.0,50,0.00,,,0.00,0.00,VWS V14.00,2013-05-06 02:30:00,
2013-05-05 21:45:00,69.0,50.7,29.99,North,0,2.0,6.0,52,0.00,,,0.00,0.00,VWS V14.00,2013-05-06 02:45:00,
2013-05-05 22:00:00,69.2,50.3,30.00,North,0,2.0,7.0,51,0.00,,,0.00,0.00,VWS V14.00,2013-05-06 03:00:00,
2013-05-05 22:15:00,69.7,49.2,30.00,NNE,22,4.0,10.0,48,0.00,,,0.00,0.00,VWS V14.00,2013-05-06 03:15:00,
2013-05-05 22:30:00,69.5,49.5,30.01,NNE,22,3.0,8.0,49,0.00,,,0.00,0.00,VWS V14.00,2013-05-06 03:30:00,
2013-05-05 22:45:00,68.6,50.8,30.01,NNE,22,1.0,5.0,53,0.00,,,0.00,0.00,VWS V14.00,2013-05-06 03:45:00,
2013-05-05 23:00:00,66.7,50.5,30.02,NNE,22,1.0,5.0,56,0.00,,,0.00,0.00,VWS V14.00,2013-05-06 04:00:00,
2013-05-05 23:15:00,64.8,50.6,30.02,NE,45,1.0,4.0,60,0.00,,,0.00,0.00,VWS V14.00,2013-05-06 04:15:00,
2013-05-05 23:30:00,63.8,50.5,30.03,ENE,68,0.0,4.0,62,0.00,,,0.00,0.00,VWS V14.00,2013-05-06 04:30:00,
2013-05-05 23:45:00,63.3,51.3,30.03,ENE,68,0.0,4.0,65,0.00,,,0.00,0.00,VWS V14.00,2013-05-06 04:45:00,